Regional Weather Roundup
Issued by NWS

Home | Current Version | Previous Version | Text Only | Print | Product List | Glossary On
Versions: 1 2 3 4 5 6 7 8 9 10 11 12 13 14 15 16 17 18 19 20 21 22 23 24 25 26 27 28 29 30 31 32 33 34 35 36 37 38 39 40 41 42 43 44 45 46 47 48 49 50
000
ASUS42 KTBW 231717
RWRFL
FLORIDA REGIONAL WEATHER ROUNDUP
NATIONAL WEATHER SERVICE TAMPA BAY RUSKIN FL
100 PM EDT SAT MAY 23 2015

NOTE: "FAIR" INDICATES FEW OR NO CLOUDS BELOW 12,000 FEET WITH NO
SIGNIFICANT WEATHER AND/OR OBSTRUCTIONS TO VISIBILITY.


FLZ001>010-012>015-112-114-115-231800-
PANHANDLE FLORIDA

CITY           SKY/WX    TMP DP  RH WIND       PRES   REMARKS
PENSACOLA      SUNNY     82  67  60 SE15      30.26R
PENSACOLA NAS  MOSUNNY   84  69  60 SE16      30.26R
MILTON NAS     SUNNY     85  56  37 VRB6      30.26
CRESTVIEW      SUNNY     87  64  46 NE8       30.28S
DUKE FIELD     FAIR      85  57  38 NE7       30.25S
VALPARAISO     MOSUNNY   84  65  51 S13       30.26S
MARY ESTHER    MOSUNNY   82  67  59 S15G23    30.25R
TRI COUNTY     FAIR      83  62  49 E8G17     30.28S
PANAMA CITY    FAIR      85  62  46 NE8       30.25S
APALACHICOLA   SUNNY     84  67  56 E14G24    30.26F

STATION/POSITION SKY/WX   TEMP    WIND        PRES    WAVE   SWELL
                          AIR SEA DIR/SP/G            HT/PER HT/PER
                          (F)     (DEG/KT/KT) (MB)    (FT/S) (FT/S)
30.1N   87.6W              79 80   90/ 14/ 16 1023.5S   2/ 4
29.2N   88.2W              80 81  100/ 14/ 16 1023.6S   2/ 4
28.8N   86.0W              80 81   90/ 14/ 17 1023.5F   3/ 4
PANAMA CITY BEAC           78 77  150/ 12/ 12 1024.3S
CAPE SAN BLAS    NOT AVBL
TOWER C                    76      90/ 15/ 15 1024.4F
28.5N   84.5W              80 80   90/ 12/ 16 1023.8S   4/ 5   2/10

$$
FLZ011-016>038-118-127-128-134-139-239-231800-
NORTH FLORIDA

CITY           SKY/WX    TMP DP  RH WIND       PRES   REMARKS
MARIANNA       SUNNY     84  62  47 E13       30.27F
TALLAHASSEE    MOSUNNY   86  61  42 E12G21    30.27F
PERRY          SUNNY     85  62  44 N9        30.27F
CROSS CITY       N/A     89  65  44 VRB5      30.25F
LAKE CITY      PTSUNNY   82  64  54 E9G17     30.28F
GAINESVILLE    MOSUNNY   86  65  49 NE9       30.27F
MAYPORT NAS    MOSUNNY   83  67  58 NE20      30.31F
JACKSONVILLE   PTSUNNY   80  66  62 E15       30.30F
JAX NAS        PTSUNNY   83  66  56 E16       30.31S
JAX CRAIG      MOSUNNY   81  67  62 NE14G22   30.31F
JAX CECIL      PTSUNNY   81  66  61 E14       30.30F
FERNANDINA BEA FAIR      86  70  58 E16       30.31S
ST AUGUSTINE   MOSUNNY   81  72  74 N14       30.31S

STATION/POSITION SKY/WX   TEMP    WIND        PRES    WAVE   SWELL
                          AIR SEA DIR/SP/G            HT/PER HT/PER
                          (F)     (DEG/KT/KT) (MB)    (FT/S) (FT/S)
SHELL POINT                81      90/  7/ 11   N/A
KEATON BEACH               82     100/  9/ 11 1024.6F
CEDAR KEY                  82     110/  8/ 10 1024.5F
FERNANDINA                 78 78   40/  8/ 14 1026.2R
30.7N   81.3W                 77                N/A     5/ 6
MAYPORT                    76 77   50/ 16/ 19 1026.9R
31.4N   80.9W              74 75   50/ 17/ 19 1027.3S   4/ 5
ST AUGUSTINE               76 77   20/ 12/ 13 1026.6F

$$
FLZ040-043>046-052-053-057-058-063-144-231800-
INTERIOR CENTRAL FLORIDA

CITY           SKY/WX    TMP DP  RH WIND       PRES   REMARKS
OCALA          PTSUNNY   88  66  48 NE8       30.26F
THE VILLAGES     N/A     88  72  58 VRB5G12   30.15F
LEESBURG       MOSUNNY   89  66  46 E9G16     30.25F
SANFORD        MOSUNNY   89  66  46 NE12G17   30.25F
ORLANDO EXEC   MOSUNNY   90  68  48 NE10G18   30.24F
ORLANDO INTL   MOSUNNY   90  69  50 NE9       30.24F
KISSIMMEE      MOSUNNY   88  70  55 NE12G17   30.24F
WINTER HAVEN   SUNNY     91  67  44 NE10      30.24F
LAKELAND       SUNNY     90  66  45 NE14      30.23
BARTOW         MOSUNNY   88  63  42 E10       30.24F
OKEECHOBEE     PTSUNNY   90  70  51 NE6       30.21F HX  95

$$
FLZ041-047-054-059-064-141-147-231800-
EAST CENTRAL FLORIDA

CITY           SKY/WX    TMP DP  RH WIND       PRES   REMARKS
ORMOND BEACH   PTSUNNY   82  73  74 NE12G20   30.27F
DAYTONA BEACH  PTSUNNY   84  71  65 E7        30.27S
DELAND           N/A     86  70  58 E13       30.27F
NEW SMYRNA BEA MOSUNNY   84  72  65 NE7       30.28S
JFK SPACE CTR  MOSUNNY   85  72  65 NE8       30.25S
TITUSVILLE     MOSUNNY   86  70  58 NE14      30.25F
CAPE CANAVERAL MOSUNNY   85  72  64 NE8       30.24S
PATRICK AFB    SUNNY     85  73  68 NE12      30.24S
MELBOURNE      SUNNY     86  72  62 NE10      30.24S
VERO BEACH     PTSUNNY   85  71  63 NE10      30.24S
FT PIERCE      PTSUNNY   86  74  67 E13       30.23S

STATION/POSITION SKY/WX   TEMP    WIND        PRES    WAVE   SWELL
                          AIR SEA DIR/SP/G            HT/PER HT/PER
                          (F)     (DEG/KT/KT) (MB)    (FT/S) (FT/S)
28.5N   80.2W              80 82   60/ 10/ 10 1024.6R
28.9N   78.5W              80 81   50/ 16/ 19 1024.3R
TRIDENT PIER               86 82   40/ 10/ 12 1024.8R
28.4N   80.5W                 82                N/A     2/ 8
27.5N   80.2W                 81                N/A     2/ 8

$$
FLZ050-056-061-142-242-148-248-149-249-151-251-155-255-
160-260-231800-
WEST CENTRAL FLORIDA

CITY           SKY/WX    TMP DP  RH WIND       PRES   REMARKS
CRYSTAL RIVER  FAIR      90  70  51 E8        30.24S HX  95
INVERNESS      PTSUNNY   88  70  55 NE9       30.24F
BROOKSVILLE    MOSUNNY   90  69  50 NE13      30.23F
CLEARWATER     SUNNY     89  70  53 NE7       30.21F
TAMPA INTL     MOSUNNY   91  65  41 E8        30.22F
TAMPA EXEC     MOSUNNY   91  70  49 E8        30.23S HX  97
PLANT CITY     MOSUNNY   91  70  49 E9G16     30.24F HX  97
MACDILL AFB    MOSUNNY   91  68  46 E8        30.21F HX  95
PETER O KNIGHT SUNNY     93  68  43 E10       30.22S HX  97
ST PETERSBURG  SUNNY     88  71  57 E8        30.20F
SARASOTA       MOSUNNY   89  71  55 E12       30.19F HX  95
VENICE         FAIR      90  72  55 SE10      30.20F HX  96

STATION/POSITION SKY/WX   TEMP    WIND        PRES    WAVE   SWELL
                          AIR SEA DIR/SP/G            HT/PER HT/PER
                          (F)     (DEG/KT/KT) (MB)    (FT/S) (FT/S)
CEDAR KEY                  82     110/  8/ 10 1024.5F
28.5N   84.5W              80 80   90/ 12/ 16 1023.8S   4/ 5   2/10
27.3N   84.2W                 82                N/A     2/ 3
CLEARWATER BEACH           86 84   90/  8/ 10 1023.4F
MIDDLE TAMPA BAY           85      90/  8/ 11 1023.6R
VENICE                     88 85   70/  8/ 11 1022.2F

$$
FLZ066-069-070-075>078-162-262-165-265-231800-
SOUTHWEST FLORIDA AND KEYS

CITY           SKY/WX    TMP DP  RH WIND       PRES   REMARKS
PUNTA GORDA    MOSUNNY   89  73  59 SE9       30.21F HX  97
FT MYERS       MOSUNNY   90  71  53 SE9       30.18F HX  96
SOUTHWEST INTL PTSUNNY   88  71  57 SE7       30.19F
NAPLES         MOSUNNY   89  71  55 E9        30.18F HX  95
MARCO ISLAND   MOSUNNY   90  70  51 NE8       30.19F HX  95
IMMOKALEE      PTSUNNY  N/A N/A N/A CALM      30.20F
MARATHON       SUNNY     89  75  63 E9        30.18S HX  99
KEY WEST NAS   MOSUNNY   90  73  57 E14       30.17F HX  98
KEY WEST INTL  SUNNY     87  75  67 E13       30.17F HX  96

STATION/POSITION SKY/WX   TEMP    WIND        PRES    WAVE   SWELL
                          AIR SEA DIR/SP/G            HT/PER HT/PER
                          (F)     (DEG/KT/KT) (MB)    (FT/S) (FT/S)
VENICE                     88 85   70/  8/ 11 1022.2F
NAPLES                     86 85  120/  3/  7 1022.6S
26.0N   85.6W              81 82   80/ 10/ 12 1021.9F   1/ 3
DRY TORTUGAS               82     110/  6/  6 1021.9F
NW FL BAY                  85     100/ 10/ 12 1022.4
SAND KEY                   82     100/ 11/ 13 1021.7F
SOMBRERO KEY               83      90/ 13/ 13 1022.5F
LONG KEY                   83 87  110/ 11/ 13 1023.0F
MOLASSES REEF              82 83   90/ 11/ 13 1022.3F

$$
FLZ067-068-071>074-168-172>174-231800-
SOUTHEAST FLORIDA

CITY           SKY/WX    TMP DP  RH WIND       PRES   REMARKS
W PALM BEACH   MOSUNNY   88  68  51 E9        30.21F
FT LAUDER-EXEC MOSUNNY   88  73  61 E12G17    30.20F HX  95
FT LAUDERDALE  PTSUNNY   86  74  67 E14       30.20S
POMPANO BEACH  MOSUNNY   87  73  62 E9        30.20F
PEMBROKE PINES PTSUNNY   88  72  58 E14       30.21F
OPA LOCKA      MOSUNNY   89  71  55 SE13      30.20F HX  95
MIAMI          MOSUNNY   89  69  51 E12       30.19F
WEST KENDALL   SUNNY     90  72  55 E13       30.19F HX  97
HOMESTEAD      MOSUNNY   86  74  68 NE12      30.19F

STATION/POSITION SKY/WX   TEMP    WIND        PRES    WAVE   SWELL
                          AIR SEA DIR/SP/G            HT/PER HT/PER
                          (F)     (DEG/KT/KT) (MB)    (FT/S) (FT/S)
PORT EVERGLADES            84      90/  5/  7 1022.8F
VIRGINIA KEY               81 85   60/  7/  8 1022.6R
LAKE WORTH                 83 82   80/  6/  7 1023.1R
SETTLEMENT POINT           82      50/  6/  7 1023.6F

$$



USA.gov is the U.S. government's official web portal to all federal, state and local government web resources and services.